User: anonymous
Location: Blue Mountain Vista Observatory
(40.6992°N, 75.9422°W)
Time: 05:41:08
(UTC-04:00)
Language:

Cosmos 1222 Rocket - Orbit

View from above orbital plane
View from above orbital plane
View from above satellite
View from above satellite

Ground track
Ground track

The orbit data is extracted from the following two-line orbital elements,

1 12072U 80093B   14293.10100531  .00055378  00000-0  58602-3 0  2582
2 12072 081.1823 172.1133 0008592 275.4722 084.5552 15.63884022865577
Epoch (UTC): 20 October 2014 02:25:26
Eccentricity: 0.0008592
inclination: 81.1823°
perigee height: 370 km
apogee height: 382 km
right ascension of ascending node: 172.1133°
argument of perigee: 275.4722°
revolutions per day: 15.63884022
mean anomaly at epoch: 84.5552°
orbit number at epoch: 86557

The dashed part of the orbit path shows where the satellite is in the earth's shadow,  

DLR